This is the latest recevied weather packets stored in our database for station/object SP9TWP-3. If no packets are shown the sender has not sent any weather packets the latest 10 day(s).
| Time | Temp. | Humidity | Pressure | Rain* | Wind** | Luminosity | Snow |
|---|---|---|---|---|---|---|---|
| 1777899708 | 27.78° C | 22% | 1012.6 hPa | - | - | - | - |
| 1777898808 | 28.33° C | 22% | 1012.8 hPa | - | - | - | - |
| 1777897907 | 28.33° C | 20% | 1012.8 hPa | - | - | - | - |
| 1777897007 | 28.33° C | 20% | 1013 hPa | - | - | - | - |
| 1777896107 | 27.22° C | 21% | 1013 hPa | - | - | - | - |
| 1777895207 | 27.78° C | 21% | 1013.2 hPa | - | - | - | - |
| 1777894307 | 26.67° C | 22% | 1013.5 hPa | - | - | - | - |
| 1777893407 | 26.11° C | 22% | 1013.6 hPa | - | - | - | - |
| 1777892506 | 25° C | 23% | 1013.8 hPa | - | - | - | - |
| 1777891675 | 26.67° C | 22% | 1013.8 hPa | - | - | - | - |
| 1777891606 | 26.67° C | 22% | 1013.8 hPa | - | - | - | - |
| 1777890967 | 25.56° C | 23% | 1014 hPa | - | - | - | - |
| 1777890706 | 25.56° C | 23% | 1014 hPa | - | - | - | - |
| 1777890176 | 25° C | 24% | 1014.2 hPa | - | - | - | - |
| 1777889806 | 25° C | 24% | 1014.2 hPa | - | - | - | - |
| 1777888906 | 23.89° C | 25% | 1014.5 hPa | - | - | - | - |
| 1777888006 | 23.89° C | 24% | 1014.6 hPa | - | - | - | - |
| 1777887105 | 23.33° C | 25% | 1014.6 hPa | - | - | - | - |
| 1777886205 | 23.33° C | 25% | 1014.7 hPa | - | - | - | - |
| 1777885305 | 23.33° C | 24% | 1014.9 hPa | - | - | - | - |
| 1777884405 | 23.33° C | 25% | 1014.8 hPa | - | - | - | - |
| 1777883505 | 22.22° C | 26% | 1014.9 hPa | - | - | - | - |
| 1777882605 | 22.22° C | 27% | 1014.9 hPa | - | - | - | - |
| 1777881704 | 21.67° C | 27% | 1014.9 hPa | - | - | - | - |
| 1777880804 | 21.11° C | 28% | 1014.9 hPa | - | - | - | - |
* Rain since midnight (hover to see other rain measurements)
** Current wind speed in m/s (hover to see current wind gust speed)